Regional Weather Roundup
Issued by NWS

Home | Current Version | Previous Version | Graphics & Text | Print | Product List | Glossary Off
Versions: 1 2 3 4 5 6 7 8 9 10 11 12 13 14 15 16 17 18 19 20 21 22 23 24 25 26 27 28 29 30 31 32 33 34 35 36 37 38 39 40 41 42 43 44 45 46 47 48 49 50

000
ASUS43 KMPX 062310
RWRMN
WEATHER ROUNDUP FOR MINNESOTA
NATIONAL WEATHER SERVICE TWIN CITIES/CHANHASSEN MN
600 PM CDT WED MAY 06 2015


NOTE: "FAIR" INDICATES FEW OR NO CLOUDS BELOW 12,000 FEET WITH NO
SIGNIFICANT WEATHER AND/OR OBSTRUCTIONS TO VISIBILITY. N/A MEANS
CURRENT SKY AND/OR WEATHER CONDITIONS ARE NOT AVAILABLE.

MNZ060>063-068>070-070000-
   Twin Cities Metro

CITY           SKY/WX    TMP DP  RH WIND       PRES   REMARKS
TWIN CITIES    CLOUDY    71  60  68 SE17G26   29.88R
ST PAUL        LGT RAIN  68  61  78 SE12      29.89R
CRYSTAL        CLOUDY    74  57  55 SE23G40   29.85R
BLAINE         PTSUNNY   75  57  53 SE20G25   29.87S
LAKEVILLE      CLOUDY    68  61  77 SE15      29.88S
EDEN PRAIRIE   CLOUDY    74  60  61 SE26G33   29.84F
SOUTH ST PAUL  LGT RAIN  68  61  77 SE13G22   29.90R
LAKE ELMO      LGT RAIN  68  59  73 SE17      29.91R
$$
MNZ001>005-007-008-013>017-022>024-027-028-070000-
   Northwest Minnesota

CITY           SKY/WX    TMP DP  RH WIND       PRES   REMARKS
BEMIDJI        CLOUDY    65  55  69 E12       29.82F
HALLOCK        DRIZZLE   64  63  94 SE17      29.77F
ROSEAU         DRIZZLE   64  59  82 SE9       29.84S
WARROAD        CLOUDY    64  61  88 SE9       29.85F
THIEF RVR FALL CLOUDY    63  59  88 E16       29.80F
CROOKSTON      DRIZZLE   63  61  94 E8        29.77S
FOSSTON        CLOUDY    63  55  77 E10G17    29.79F
DETROIT LAKES  CLOUDY    64  57  77 E13       29.77F
MOORHEAD       LGT RAIN  64  57  77 SE7       29.72F
PARK RAPIDS    CLOUDY    69  54  58 SE10G17   29.80F
MAHNOMEN       CLOUDY    64  56  73 SE14G20   29.77S
$$
MNZ006-009>011-018-025>026-070000-
   North Central Minnesota

CITY           SKY/WX    TMP DP  RH WIND       PRES   REMARKS
BAUDETTE       LGT RAIN  63  58  83 E13       29.86F
FLAG ISLAND    DRIZZLE   61  55  82 SE6       29.85F
INTL FALLS     CLOUDY    66  56  70 SE9       29.90F
WASKISH        CLOUDY    64  57  77 E10       29.86F
BIG FORK       CLOUDY    64  52  63 E12       29.90F
LONGVILLE      CLOUDY    70  54  56 E8G16     29.84F
GRAND RAPIDS   CLOUDY    64  52  63 E13       29.90F
CRANE LAKE     CLOUDY    66  54  63 SE5       29.96S
ORR            CLOUDY    64  52  63 SE5       29.91F
COOK           CLOUDY    64  54  68 SE9       29.95F
WALKER         CLOUDY    67  55  67 E8        29.82F
$$
MNZ012-019>021-037-070000-
   Northeast Minnesota

CITY           SKY/WX    TMP DP  RH WIND       PRES   REMARKS
DULUTH         CLOUDY    61  52  72 E13       29.96F
ELY            CLOUDY    63  52  67 SE14      29.97S
HIBBING        CLOUDY    63  52  67 SE14G21   29.93F
EVELETH        CLOUDY    63  52  67 SE9       29.96F
DULUTH HARBOR  CLOUDY    46  37  71 E13       29.99F
TWO HARBORS    CLOUDY    61  46  59 NE9       29.97F
SILVER BAY     CLOUDY    57  34  41 NE9       30.00F
GRAND MARAIS     N/A     47  32  56 E8        30.03F
G MARAIS ARPRT CLOUDY    59  39  47 E7        30.05F
$$
MNZ029>031-032-039>041-046>048-054>057-064-070000-
   West Central Minnesota

CITY           SKY/WX    TMP DP  RH WIND       PRES   REMARKS
FERGUS FALLS   LGT RAIN  64  59  82 SE21G31   29.74S
WHEATON        LGT RAIN  63  61  94 SE22G30   29.71S
MORRIS         CLOUDY    70  66  88 SE14      29.72F
ALEXANDRIA     CLOUDY    66  60  81 SE20G29   29.78F
ELBOW LAKE     LGT RAIN  63  61  93 SE18G26   29.73F
WADENA         DRIZZLE   66  55  68 SE18G28   29.79S
GLENWOOD       CLOUDY    66  63  88 SE17      29.78F
APPLETON       PTSUNNY   72  61  68 S14G21    29.71F
BENSON         PTSUNNY   72  59  64 S10       29.74S
ORTONVILLE     PTSUNNY   68  61  77 S14G21    29.70F
MADISON        PTSUNNY   73  61  64 S14       29.70F
WILLMAR        FAIR      73  64  73 SE20G30   29.78S
$$
MNZ033>034-036-042>043-049>051-058-059-070000-
   Central Minnesota

CITY           SKY/WX    TMP DP  RH WIND       PRES   REMARKS
ST CLOUD       LGT RAIN  64  62  93 S10       29.84R
SAUK CENTRE    FAIR      64  61  91 SE18G24   29.80F
PAYNESVILLE    CLOUDY    64  62  94 E13       29.81F
AITKIN         CLOUDY    73  55  53 E10G17    29.84S
PINE RIVER     CLOUDY    70  55  60 SE10G20   29.86F
BRAINERD       CLOUDY    70  55  59 SE9G21    29.83F
STAPLES        RAIN      66  55  68 SE9G16    29.81S
LONG PRAIRIE   LGT RAIN  63  59  88 SE17G23   29.82S
LITTLE FALLS   HVY RAIN  63  59  88 S10G29    29.86R
LITCHFIELD     CLOUDY    70  66  88 SE13G22   29.82F
BUFFALO        CLOUDY    69  61  75 SE10      29.86R
MAPLE LAKE     CLOUDY    66  64  93 SE3       29.85F
$$
MNZ037-044-045-052-053-070000-
   East Central Minnesota

CITY           SKY/WX    TMP DP  RH WIND       PRES   REMARKS
PRINCETON      CLOUDY    73  57  56 E15G21    29.84F
MORA           CLOUDY    73  52  46 SE18G25   29.88S
CAMBRIDGE      CLOUDY    75  57  53 SE8G24    29.84F
RUSH CITY      CLOUDY    74  54  48 SE17G25   29.88S
MOOSE LAKE     CLOUDY    59  46  63 NE10G20   29.89F
HINCKLEY       FAIR      75  54  46 SE13G24   29.88S
CLOQUET        CLOUDY    55  45  67 E15G21    29.95F
MCGREGOR       CLOUDY    66  52  59 E13G21    29.88F
$$
MNZ071>073-080-081-089-090-097-098-070000-
   Southwest Minnesota

CITY           SKY/WX    TMP DP  RH WIND       PRES   REMARKS
MONTEVIDEO     PTSUNNY   73  57  56 SW26G36   29.72F
GRANITE FALLS  CLOUDY    75  58  55 SE23G31   29.75S
CANBY          CLOUDY    73  56  55 S25G31    29.72F
MARSHALL       PTSUNNY   70  57  64 S25G35    29.74R
REDWOOD FALLS  PTSUNNY   76  59  55 S23G37    29.76S
OLIVIA         MOSUNNY   72  57  60 S18G28    29.76F
PIPESTONE      MOSUNNY   68  61  77 S28G40    29.75S
WINDOM         PTSUNNY   70  55  60 S15G24    29.80R
WORTHINGTON    PTSUNNY   66  57  72 S20       29.80F
JACKSON        CLOUDY    70  55  60 SW16G24   29.83S
TRACY          PTSUNNY   71  60  67 S24G38    29.77R
SLAYTON        PTSUNNY   66  61  82 S24G33    29.79R
$$
MNZ065>067-074>077-082>085-091>093-070000-
   South Central Minnesota

CITY           SKY/WX    TMP DP  RH WIND       PRES   REMARKS
MANKATO        PTSUNNY   75  57  53 S22G31    29.83S
NEW ULM        MOSUNNY   73  59  60 S20G26    29.80S
ST JAMES       MOSUNNY   73  61  64 S21G26    29.82R
FAIRMONT       PTSUNNY   73  46  38 S15       29.82S
GLENCOE        CLOUDY    74  65  72 SE12G20   29.82F
FARIBAULT      CLOUDY    70  61  73 SE15G25   29.88F
OWATONNA       CLOUDY    70  63  78 SE14      29.88F
WASECA         CLOUDY    72  61  68 SE17G23   29.87F
ALBERT LEA     CLOUDY    73  63  68 S12       29.87F
$$
MNZ078>079-086>088-094>096-070000-
   Southeast Minnesota

CITY           SKY/WX    TMP DP  RH WIND       PRES   REMARKS
ROCHESTER      CLOUDY    66  62  87 S16       29.93F
RED WING       RAIN      68  61  77 S9        29.93R
STANTON        LGT RAIN  68  62  80 SE10G17   29.89S
DODGE CENTER   CLOUDY    68  64  88 SE13      29.91F
WINONA         CLOUDY    75  55  50 SE13      29.92F
AUSTIN         CLOUDY    70  63  78 SE13G21   29.90S
PRESTON        CLOUDY    68  59  73 S21G26    29.94F
$$
ABBREVIATIONS USED IN REMARKS
   TC - TEMPERATURES IN CELSIUS
  WCI - WIND CHILL INDEX
   HX - HEAT INDEX
  VSB - VISIBILITY
$$


USA.gov is the U.S. government's official web portal to all federal, state and local government web resources and services.